| time (UTC) | temp F | wind direction | speed knots | gust knots | rain 1hr in | rain 24hr in | rain mn in | humidity % | barometer mb |
| 20260507060232 | 49 | 234 | 0.0 | 0.9 | 0.01 | 0.11 | 0.02 | 94 | 1013.6 |
| 20260507060122 | 49 | 234 | 0.0 | 0.9 | 0.01 | 0.13 | 0.02 | 94 | 1014.0 |
| 20260507054523 | 48 | 221 | 0.0 | 1.7 | 0.01 | 0.12 | 0.01 | 94 | 1013.9 |
| 20260507054215 | 49 | 215 | 0.9 | 0.9 | 0.01 | 0.10 | 0.01 | 94 | 1013.4 |
| 20260507052218 | 49 | 195 | 0.0 | 0.0 | 0.01 | 0.10 | 0.01 | 94 | 1013.2 |
| 20260507051526 | 48 | 195 | 0.0 | 1.7 | 0.01 | 0.12 | 0.01 | 94 | 1013.6 |
| 20260507051223 | 49 | 195 | 0.0 | 1.7 | 0.01 | 0.10 | 0.01 | 94 | 1013.1 |
| 20260507050216 | 49 | 195 | 0.0 | 1.7 | 0.01 | 0.10 | 0.01 | 94 | 1013.0 |
| 20260507050037 | 48 | 198 | 0.0 | 1.7 | 0.01 | 0.12 | 0.01 | 94 | 1013.3 |
| 20260507045218 | 49 | 180 | 0.9 | 1.7 | 0.00 | 0.09 | 0.00 | 94 | 1012.8 |
| 20260507044504 | 48 | 178 | 0.0 | 1.7 | 0.00 | 0.13 | 0.00 | 94 | 1013.2 |
| 20260507044220 | 49 | 178 | 0.0 | 1.7 | 0.00 | 0.09 | 0.00 | 94 | 1012.7 |
| 20260507043210 | 49 | 180 | 0.0 | 0.9 | 0.00 | 0.09 | 0.00 | 94 | 1012.6 |
| 20260507043042 | 48 | 180 | 0.0 | 0.9 | 0.00 | 0.13 | 0.00 | 94 | 1012.9 |
| 20260507042220 | 48 | 180 | 0.0 | 0.0 | 0.00 | 0.09 | 0.00 | 94 | 1012.5 |
| 20260507041555 | 48 | 180 | 0.0 | 0.0 | 0.00 | 0.13 | 0.00 | 94 | 1012.8 |
| 20260507041220 | 48 | 180 | 0.0 | 0.9 | 0.00 | 0.09 | 0.00 | 94 | 1012.3 |
| 20260507040229 | 48 | 180 | 0.0 | 0.9 | 0.00 | 0.09 | 0.00 | 94 | 1012.3 |
| 20260507040045 | 48 | 180 | 0.0 | 1.7 | 0.00 | 0.13 | 0.00 | 94 | 1012.6 |
| 20260507035217 | 48 | 233 | 0.0 | 1.7 | 0.00 | 0.09 | 0.00 | 94 | 1012.3 |
| 20260507034614 | 48 | 233 | 0.0 | 1.7 | 0.00 | 0.20 | 0.00 | 94 | 1012.6 |
| 20260507034218 | 48 | 233 | 0.9 | 1.7 | 0.00 | 0.09 | 0.00 | 94 | 1012.2 |
| 20260507033227 | 49 | 218 | 0.9 | 0.9 | 0.00 | 0.09 | 0.00 | 94 | 1012.1 |
| 20260507033004 | 48 | 218 | 0.9 | 1.7 | 0.00 | 0.20 | 0.00 | 94 | 1012.5 |
| 20260507031628 | 48 | 235 | 0.0 | 0.9 | 0.00 | 0.20 | 0.00 | 94 | 1012.5 |
| 20260507031217 | 49 | 235 | 0.9 | 1.7 | 0.00 | 0.09 | 0.00 | 93 | 1012.0 |
| 20260507030209 | 49 | 229 | 0.9 | 2.6 | 0.00 | 0.10 | 0.00 | 93 | 1012.0 |
| 20260507030054 | 48 | 219 | 0.9 | 2.6 | 0.00 | 0.20 | 0.00 | 93 | 1012.3 |
| 20260507025247 | 49 | 234 | 0.9 | 1.7 | 0.00 | 0.10 | 0.00 | 93 | 1011.9 |
| 20260507024559 | 48 | 204 | 0.0 | 2.6 | 0.00 | 0.20 | 0.00 | 93 | 1012.2 |
| 20260507024212 | 49 | 205 | 0.9 | 1.7 | 0.00 | 0.10 | 0.00 | 93 | 1011.9 |
| 20260507023212 | 49 | 207 | 0.9 | 1.7 | 0.00 | 0.10 | 0.00 | 93 | 1011.8 |
| 20260507023058 | 48 | 191 | 0.9 | 2.6 | 0.00 | 0.20 | 0.00 | 93 | 1012.1 |
| 20260507022220 | 49 | 270 | 0.9 | 1.7 | 0.00 | 0.10 | 0.00 | 94 | 1011.7 |
| 20260507021549 | 49 | 195 | 0.0 | 3.5 | 0.00 | 0.20 | 0.00 | 94 | 1012.0 |
| 20260507021223 | 49 | 202 | 0.9 | 1.7 | 0.00 | 0.10 | 0.00 | 94 | 1011.6 |
| 20260507020206 | 49 | 312 | 1.7 | 3.5 | 0.00 | 0.10 | 0.00 | 94 | 1011.5 |
| 20260507020042 | 49 | 292 | 0.9 | 3.5 | 0.00 | 0.20 | 0.00 | 94 | 1011.8 |
| 20260507015213 | 49 | 190 | 1.7 | 3.5 | 0.00 | 0.10 | 0.00 | 94 | 1011.4 |
| 20260507014506 | 49 | 218 | 0.9 | 3.5 | 0.00 | 0.20 | 0.00 | 94 | 1011.6 |
| 20260507013226 | 50 | 248 | 1.7 | 0.9 | 0.00 | 0.10 | 0.00 | 94 | 1011.2 |
| 20260507013106 | 0 | 0.0 | 0.0 | 0.00 | 0.20 | 0.00 | 1011.4 | ||
| 20260507012206 | 50 | 248 | 1.7 | 2.6 | 0.00 | 0.10 | 0.00 | 94 | 1011.0 |
| 20260507011525 | 50 | 248 | 0.9 | 3.5 | 0.00 | 0.20 | 0.00 | 94 | 1011.2 |
| 20260507011224 | 50 | 237 | 1.7 | 2.6 | 0.00 | 0.10 | 0.00 | 94 | 1011.0 |
| 20260507010232 | 50 | 265 | 1.7 | 3.5 | 0.00 | 0.10 | 0.00 | 94 | 1010.9 |
| 20260507010031 | 50 | 239 | 0.9 | 3.5 | 0.00 | 0.20 | 0.00 | 94 | 1011.1 |
| 20260507005219 | 50 | 236 | 0.9 | 2.6 | 0.00 | 0.10 | 0.00 | 94 | 1010.9 |
| 20260507004540 | 50 | 173 | 0.9 | 2.6 | 0.00 | 0.20 | 0.00 | 94 | 1011.0 |
| 20260507003221 | 51 | 209 | 0.9 | 1.7 | 0.00 | 0.10 | 0.00 | 94 | 1010.7 |
| 20260507003049 | 0 | 0.0 | 0.0 | 0.00 | 0.20 | 0.00 | 1010.9 | ||
| 20260507002212 | 51 | 209 | 0.9 | 1.7 | 0.00 | 0.10 | 0.00 | 94 | 1010.7 |
| 20260507001533 | 50 | 199 | 0.0 | 1.7 | 0.00 | 0.20 | 0.00 | 94 | 1010.9 |
| 20260507000207 | 51 | 281 | 0.9 | 2.6 | 0.00 | 0.10 | 0.00 | 94 | 1010.6 |
| 20260507000037 | 50 | 192 | 0.0 | 2.6 | 0.00 | 0.20 | 0.00 | 94 | 1010.8 |
| 20260506234534 | 50 | 240 | 0.9 | 3.5 | 0.00 | 0.20 | 0.00 | 94 | 1010.7 |
| 20260506234220 | 51 | 293 | 0.9 | 2.6 | 0.00 | 0.10 | 0.00 | 94 | 1010.5 |
| 20260506233205 | 51 | 236 | 0.9 | 2.6 | 0.00 | 0.10 | 0.00 | 94 | 1010.5 |
| 20260506233023 | 51 | 206 | 0.9 | 3.5 | 0.00 | 0.20 | 0.00 | 94 | 1010.7 |
| 20260506232213 | 52 | 238 | 0.9 | 2.6 | 0.00 | 0.10 | 0.00 | 94 | 1010.5 |
| 20260506231528 | 51 | 271 | 0.9 | 2.6 | 0.00 | 0.20 | 0.00 | 94 | 1010.6 |
| 20260506230049 | 0 | 0.0 | 0.0 | 0.00 | 0.20 | 0.00 | 1010.6 | ||
| 20260506224536 | 0 | 0.0 | 0.0 | 0.00 | 0.21 | 0.00 | 1010.5 | ||
| 20260506223015 | 0 | 0.0 | 0.0 | 0.00 | 0.21 | 0.00 | 1010.4 | ||
| 20260506221502 | 0 | 0.0 | 0.0 | 0.00 | 0.21 | 0.00 | 1010.2 | ||
| 20260506220140 | 0 | 0.0 | 0.0 | 0.00 | 0.21 | 0.00 | 1010.2 | ||
| 20260506214540 | 0 | 0.0 | 0.0 | 0.00 | 0.21 | 0.09 | 1010.1 | ||
| 20260506213058 | 0 | 0.0 | 0.0 | 0.00 | 0.21 | 0.09 | 1009.9 | ||
| 20260506211531 | 0 | 0.0 | 0.0 | 0.00 | 0.21 | 0.09 | 1009.8 | ||
| 20260506210011 | 0 | 0.0 | 0.0 | 0.00 | 0.21 | 0.09 | 1009.6 | ||
| 20260506204547 | 0 | 0.0 | 0.0 | 0.00 | 0.21 | 0.09 | 1009.4 | ||
| 20260506203009 | 0 | 0.0 | 0.0 | 0.00 | 0.21 | 0.09 | 1009.3 | ||
| 20260506201547 | 0 | 0.0 | 0.0 | 0.00 | 0.21 | 0.09 | 1009.2 | ||
| 20260506200036 | 0 | 0.0 | 0.0 | 0.00 | 0.21 | 0.09 | 1009.1 | ||
| 20260506194503 | 0 | 0.0 | 0.0 | 0.00 | 0.21 | 0.09 | 1008.9 | ||
| 20260506193047 | 0 | 0.0 | 0.0 | 0.00 | 0.21 | 0.09 | 1008.9 | ||
| 20260506191559 | 0 | 0.0 | 0.0 | 0.00 | 0.21 | 0.09 | 1008.4 | ||
| 20260506190216 | 53 | 175 | 3.5 | 6.1 | 0.00 | 0.13 | 0.10 | 93 | 1008.0 |
| 20260506190037 | 0 | 0.0 | 0.0 | 0.01 | 0.21 | 0.09 | 1008.2 | ||
| 20260506185223 | 53 | 175 | 3.5 | 7.0 | 0.00 | 0.13 | 0.10 | 93 | 1007.9 |
| 20260506184627 | 53 | 189 | 3.5 | 10.4 | 0.01 | 0.21 | 0.09 | 93 | 1008.1 |
| 20260506184217 | 54 | 161 | 2.6 | 6.1 | 0.00 | 0.14 | 0.10 | 93 | 1007.9 |
| 20260506183217 | 54 | 180 | 2.6 | 6.1 | 0.00 | 0.16 | 0.10 | 93 | 1007.8 |
| 20260506183006 | 54 | 163 | 2.6 | 6.1 | 0.01 | 0.21 | 0.09 | 93 | 1007.9 |
| 20260506182224 | 54 | 211 | 2.6 | 6.1 | 0.00 | 0.17 | 0.09 | 92 | 1007.7 |
| 20260506181544 | 54 | 169 | 2.6 | 7.0 | 0.01 | 0.21 | 0.09 | 92 | 1007.8 |
| 20260506181212 | 54 | 233 | 1.7 | 6.1 | 0.00 | 0.17 | 0.09 | 92 | 1007.6 |
| 20260506180041 | 0 | 0.0 | 0.0 | 0.00 | 0.20 | 0.09 | 1007.7 | ||
| 20260506174529 | 0 | 0.0 | 0.0 | 0.02 | 0.20 | 0.09 | 1007.6 | ||
| 20260506173038 | 0 | 0.0 | 0.0 | 0.09 | 0.20 | 0.09 | 1007.3 | ||
| 20260506172213 | 57 | 198 | 1.7 | 0.9 | 0.09 | 0.19 | 0.09 | 88 | 1007.1 |
| 20260506171528 | 0 | 0.0 | 0.0 | 0.09 | 0.20 | 0.09 | 1007.1 | ||
| 20260506171213 | 57 | 198 | 1.7 | 0.9 | 0.09 | 0.19 | 0.09 | 88 | 1007.0 |
| 20260506170218 | 57 | 179 | 1.7 | 8.7 | 0.09 | 0.19 | 0.09 | 88 | 1006.9 |
| 20260506165212 | 57 | 155 | 2.6 | 8.7 | 0.08 | 0.18 | 0.09 | 88 | 1006.8 |
| 20260506164525 | 57 | 114 | 2.6 | 7.8 | 0.06 | 0.18 | 0.06 | 88 | 1007.0 |
| 20260506164212 | 57 | 194 | 2.6 | 9.6 | 0.03 | 0.13 | 0.04 | 87 | 1006.8 |
| 20260506163213 | 58 | 159 | 3.5 | 9.6 | 0.00 | 0.10 | 0.01 | 84 | 1006.6 |
| 20260506163107 | 58 | 208 | 2.6 | 10.4 | 0.00 | 0.12 | 0.00 | 84 | 1006.8 |
| 20260506162227 | 59 | 208 | 3.5 | 9.6 | 0.00 | 0.10 | 0.01 | 81 | 1006.5 |
| 20260506161506 | 59 | 190 | 3.5 | 9.6 | 0.00 | 0.12 | 0.00 | 79 | 1006.7 |
| 20260506161220 | 59 | 154 | 2.6 | 9.6 | 0.00 | 0.10 | 0.01 | 79 | 1006.5 |
| 20260506160251 | 60 | 160 | 2.6 | 0.0 | 0.00 | 0.10 | 0.01 | 77 | 1006.5 |
| 20260506160050 | 60 | 160 | 2.6 | 7.0 | 0.00 | 0.12 | 0.00 | 77 | 1006.6 |
| 20260506154547 | 60 | 247 | 2.6 | 9.6 | 0.00 | 0.12 | 0.00 | 74 | 1006.6 |